Weather History for Reno, NV

Change the Weather History Date:

Thursday, September 27, 2012

  Actual Average Record
Temperature  
Mean Temperature 67 °F 61 °F  
Max Temperature 85 °F 78 °F 94 °F (2010)
Min Temperature 49 °F 45 °F 25 °F (1945)
Degree Days  
Heating Degree Days 0 5  
Month to date heating degree days 1 65  
Since 1 July heating degree days 1 75  
Cooling Degree Days 2 1  
Month to date cooling degree days 164 84  
Year to date cooling degree days 1240 830  
Growing Degree Days 16 (Base 50)    
Moisture  
Dew Point 34 °F    
Average Humidity 35    
Maximum Humidity 56    
Minimum Humidity 14    
Precipitation  
Precipitation 0.00 in 0.02 in 0.32 in (1998)
Month to date precipitation 0.08 0.30  
Year to date precipitation 2.73 4.99  
Snow  
Snow 0.00 in 0.00 in 0.00 in ()
Month to date snowfall 0.0 0.1  
Since 1 July snowfall 0.0 0.1  
Since 1 September snowfall 0.0 0.1  
Snow Depth 0.00 in    
Sea Level Pressure  
Sea Level Pressure 29.97 in    
Wind  
Wind Speed 3 mph (NNW)    
Max Wind Speed 17 mph    
Max Gust Speed 18 mph    
Visibility 10 miles    
Events      
T = Trace of Precipitation, MM = Missing Value Source: NWS Daily Summary

Daily Weather History Graph

Daily Weather History Graph

Search for Another Location

Airport:

Trip Planner

Search our weather history database for the weather conditions in past years. The results will help you decide how hot, cold, wet, or windy it might be!

Date:

Astronomy

Sep. 27, 2012 Rise Set
Actual Time 6:51 AM PDT 6:47 PM PDT
Civil Twilight 6:25 AM PDT 7:13 PM PDT
Nautical Twilight 5:53 AM PDT 7:45 PM PDT
Astronomical Twilight 5:22 AM PDT 8:16 PM PDT
Moon 5:20 PM PDT (9/27) 4:26 AM PDT (9/27)
Length of Visible Light 12h 48m
Length of Day
11h 55m
Waxing Gibbous, 94% of the Moon is Illuminated
Sep 27
Waxing Gibbous
Sep 29
Full
Oct 8
Last Quarter
Oct 15
New
Oct 21
First Quarter

Hourly Weather History & Observations

Time (PDT) Temp. Dew Point Humidity Pressure Visibility Wind Dir Wind Speed Gust Speed Precip Events Conditions
12:55 AM 60.1 °F 30.9 °F 33% 29.96 in 10.0 mi Calm Calm - N/A   Clear
1:55 AM 55.9 °F 35.1 °F 45% 29.99 in 10.0 mi Calm Calm - N/A   Clear
2:55 AM 53.1 °F 36.0 °F 52% 29.99 in 10.0 mi Calm Calm - N/A   Clear
3:55 AM 52.0 °F 36.0 °F 54% 29.99 in 10.0 mi Calm Calm - N/A   Clear
4:55 AM 50.0 °F 36.0 °F 59% 30.00 in 10.0 mi SSW 5.8 mph - N/A   Clear
5:55 AM 50.0 °F 35.1 °F 57% 30.01 in 10.0 mi Calm Calm - N/A   Clear
6:55 AM 51.1 °F 36.0 °F 56% 30.03 in 10.0 mi Calm Calm - N/A   Clear
7:55 AM 52.0 °F 36.0 °F 54% 30.04 in 10.0 mi Calm Calm - N/A   Clear
8:55 AM 57.9 °F 36.0 °F 44% 30.05 in 10.0 mi Calm Calm - N/A   Clear
9:55 AM 64.9 °F 34.0 °F 32% 30.03 in 10.0 mi Calm Calm - N/A   Clear
10:55 AM 69.1 °F 35.1 °F 29% 30.02 in 10.0 mi Calm Calm - N/A   Clear
11:55 AM 78.1 °F 34.0 °F 20% 29.99 in 10.0 mi Variable 4.6 mph - N/A   Partly Cloudy
12:55 PM 81.0 °F 34.0 °F 18% 29.96 in 10.0 mi Variable 3.5 mph - N/A   Partly Cloudy
1:55 PM 84.0 °F 32.0 °F 15% 29.94 in 10.0 mi NNW 3.5 mph - N/A   Partly Cloudy
2:55 PM 84.0 °F 32.0 °F 15% 29.92 in 10.0 mi Calm Calm - N/A   Partly Cloudy
3:55 PM 84.9 °F 30.0 °F 14% 29.90 in 10.0 mi East 5.8 mph - N/A   Partly Cloudy
4:55 PM 84.9 °F 30.9 °F 14% 29.89 in 10.0 mi North 6.9 mph - N/A   Partly Cloudy
5:55 PM 82.9 °F 30.9 °F 15% 29.89 in 10.0 mi NNW 5.8 mph - N/A   Partly Cloudy
6:55 PM 80.1 °F 32.0 °F 17% 29.89 in 10.0 mi North 10.4 mph - N/A   Scattered Clouds
7:55 PM 77.0 °F 30.0 °F 18% 29.92 in 10.0 mi NNW 15.0 mph - N/A   Scattered Clouds
8:55 PM 73.9 °F 30.9 °F 21% 29.94 in 10.0 mi NW 4.6 mph - N/A   Partly Cloudy
9:55 PM 73.4 °F 33.8 °F 23% 30.08 in 10.0 mi Variable 3.5 mph - N/A   Clear
10:55 PM 70.0 °F 33.1 °F 26% 29.95 in 10.0 mi Variable 3.5 mph - N/A   Clear
11:55 PM 64.0 °F 35.1 °F 34% 29.96 in 10.0 mi Calm Calm - N/A   Clear